This demonstration page uses our WeatherBlox Daily Observations layout. Learn more.

Left ArrowRight Arrow

38.89511, -77.03637

Hourly Observations for February 2, 2017

Temp ( °F °C ) Dew Point ( °F °C ) Humidity (%) Winds ( mph kmh ) Pressure ( in mb ) Visibility ( mi km ) Precip ( " mm )
12:52 am 00:52 Cloudy 44 6.7 31 -0.6 60 60 N 5 7 30.09 1019 10 16 0.00 0.00
1:52 am 01:52 Cloudy 44 6.7 31 -0.6 60 60 N 5 7 30.11 1020 10 16 0.00 0.00
2:52 am 02:52 Cloudy 43 6.1 31 -0.6 63 63 WSW 5 7 30.12 1020 10 16 0.00 0.00
3:52 am 03:52 Cloudy 43 6.1 34 1.1 71 71 Calm 30.11 1020 10 16 0.00 0.00
4:52 am 04:52 Cloudy 44 6.7 31 -0.6 60 60 Calm 30.11 1020 10 16 0.00 0.00
5:52 am 05:52 Cloudy 43 6.1 32 0 65 65 W 3 6 30.12 1020 10 16 0.00 0.00
6:52 am 06:52 Mostly Cloudy 41 5 31 -0.6 67 67 SSW 5 7 30.13 1020 10 16 0.00 0.00
7:52 am 07:52 Mostly Cloudy 41 5 31 -0.6 67 67 SSW 5 7 30.14 1021 10 16 0.00 0.00
8:52 am 08:52 Mostly Cloudy 45 7.2 28 -2.2 52 52 W 8 13 30.14 1021 10 16 0.00 0.00
9:52 am 09:52 Mostly Cloudy 45 7.2 29 -1.7 54 54 W 7 11 30.15 1021 10 16 0.00 0.00
10:52 am 10:52 Mostly Cloudy 46 7.8 27 -2.8 47 47 W 12 19 30.15 1021 10 16 0.00 0.00
11:52 am 11:52 Cloudy 47 8.3 25 -3.9 42 42 W 9 15 30.14 1021 10 16 0.00 0.00
12:52 pm 12:52 Mostly Cloudy 47 8.3 27 -2.8 46 46 WSW 7 11 30.11 1020 10 16 0.00 0.00
1:52 pm 13:52 Mostly Cloudy 48 8.9 25 -3.9 41 41 W 8 13 30.11 1020 10 16 0.00 0.00
2:52 pm 14:52 Mostly Cloudy 49 9.4 24 -4.4 38 38 WSW 7 11 30.11 1020 10 16 0.00 0.00
3:52 pm 15:52 Mostly Cloudy 49 9.4 21 -6.1 33 33 WNW 10 17 30.13 1020 10 16 0.00 0.00
4:52 pm 16:52 Mostly Sunny 47 8.3 17 -8.3 30 30 NW 17 28 30.16 1021 10 16 0.00 0.00
5:52 pm 17:52 Mostly Clear 45 7.2 17 -8.3 33 33 NW 15 24 30.18 1022 10 16 0.00 0.00
6:52 pm 18:52 Clear 42 5.6 18 -7.8 38 38 NW 6 9 30.21 1023 10 16 0.00 0.00
7:52 pm 19:52 Clear 41 5 17 -8.3 38 38 NNW 10 17 30.22 1023 10 16 0.00 0.00
8:52 pm 20:52 Clear 40 4.4 16 -8.9 38 38 NNW 13 20 30.24 1024 10 16 0.00 0.00
9:52 pm 21:52 Partly Cloudy 38 3.3 16 -8.9 41 41 NNW 17 28 30.24 1024 10 16 0.00 0.00
10:52 pm 22:52 Partly Cloudy 37 2.8 14 -10 39 39 NNW 13 20 30.26 1025 10 16 0.00 0.00
11:52 pm 23:52 Mostly Cloudy 37 2.8 13 -10.6 37 37 N 10 17 30.26 1025 10 16 0.00 0.00

Powered by AerisWeather